Meteo pe oră la Dacharzow

Astăzi, 22 Aprilie, Joi

Timp Temperatura Precipitaţii Vânt Presiune Umiditate
00:00 +9°C° 0 mm 3 m/s 743 mmHg 79%
01:00 +8°C° 0 mm 3 m/s 744 mmHg 83%
02:00 +8°C° 0 mm 3 m/s 743 mmHg 85%
03:00 +7°C° 0 mm 3 m/s 743 mmHg 87%
04:00 +5°C° 0 mm 3 m/s 743 mmHg 90%
05:00 +7°C° 0 mm 3 m/s 744 mmHg 86%
06:00 +8°C° 0 mm 3 m/s 744 mmHg 83%
07:00 +9°C° 0 mm 3 m/s 744 mmHg 80%
08:00 +7°C° 0.1 mm 4 m/s 744 mmHg 82%
09:00 +7°C° 0.1 mm 5 m/s 745 mmHg 83%
10:00 +5°C° 0.1 mm 6 m/s 745 mmHg 85%
11:00 +6°C° 0.1 mm 5 m/s 746 mmHg 80%
12:00 +6°C° 0.1 mm 5 m/s 746 mmHg 75%
13:00 +6°C° 0.1 mm 5 m/s 746 mmHg 70%
14:00 +7°C° 0 mm 5 m/s 746 mmHg 61%
15:00 +8°C° 0 mm 5 m/s 746 mmHg 52%
16:00 +9°C° 0 mm 5 m/s 746 mmHg 44%
17:00 +7°C° 0 mm 4 m/s 746 mmHg 50%
18:00 +7°C° 0 mm 3 m/s 746 mmHg 56%
19:00 +4°C° 0 mm 3 m/s 747 mmHg 63%
20:00 +3°C° 0 mm 3 m/s 747 mmHg 65%
21:00 +3°C° 0 mm 3 m/s 747 mmHg 68%
22:00 +2°C° 0 mm 3 m/s 748 mmHg 71%
23:00 +2°C° 0 mm 3 m/s 748 mmHg 75%

Mâine, 23 Aprilie, Vineri

Timp Temperatura Precipitaţii Vânt Presiune Umiditate
00:00 +1°C° 0 mm 3 m/s 748 mmHg 80%
01:00 +1°C° 0 mm 3 m/s 748 mmHg 85%
02:00 +1°C° 0 mm 3 m/s 748 mmHg 87%
03:00 0°C° 0 mm 3 m/s 748 mmHg 89%
04:00 0°C° 0 mm 3 m/s 748 mmHg 91%
05:00 +1°C° 0 mm 3 m/s 748 mmHg 83%
06:00 +3°C° 0 mm 4 m/s 749 mmHg 74%
07:00 +3°C° 0 mm 5 m/s 749 mmHg 65%
08:00 +5°C° 0 mm 5 m/s 749 mmHg 58%
09:00 +6°C° 0 mm 5 m/s 749 mmHg 51%
10:00 +8°C° 0 mm 6 m/s 749 mmHg 44%
11:00 +8°C° 0.1 mm 6 m/s 749 mmHg 46%
12:00 +8°C° 0.1 mm 6 m/s 749 mmHg 49%
13:00 +8°C° 0.1 mm 6 m/s 749 mmHg 51%
14:00 +8°C° 0.3 mm 6 m/s 749 mmHg 52%
15:00 +8°C° 0.3 mm 6 m/s 749 mmHg 53%
16:00 +6°C° 0.3 mm 7 m/s 749 mmHg 54%
17:00 +5°C° 0.1 mm 6 m/s 749 mmHg 60%
18:00 +5°C° 0.1 mm 5 m/s 750 mmHg 66%
19:00 +3°C° 0.1 mm 5 m/s 750 mmHg 72%
20:00 +3°C° 0.1 mm 4 m/s 750 mmHg 78%
21:00 +1°C° 0.1 mm 4 m/s 750 mmHg 84%
22:00 +1°C° 0.1 mm 3 m/s 751 mmHg 89%
23:00 +1°C° 0 mm 3 m/s 751 mmHg 91%

Poimâine, 24 Aprilie, Sâmbătă

Timp Temperatura Precipitaţii Vânt Presiune Umiditate
00:00 0°C° 0 mm 3 m/s 751 mmHg 92%
01:00 0°C° 0 mm 3 m/s 751 mmHg 93%
02:00 -1°C° 0 mm 3 m/s 751 mmHg 92%
03:00 -1°C° 0 mm 3 m/s 751 mmHg 90%
04:00 -1°C° 0 mm 3 m/s 751 mmHg 89%
05:00 0°C° 0 mm 3 m/s 751 mmHg 79%
06:00 +1°C° 0 mm 4 m/s 752 mmHg 68%
07:00 +4°C° 0 mm 4 m/s 752 mmHg 57%
08:00 +5°C° 0 mm 4 m/s 752 mmHg 51%
09:00 +6°C° 0 mm 5 m/s 752 mmHg 45%
10:00 +7°C° 0 mm 5 m/s 752 mmHg 39%
11:00 +8°C° 0 mm 5 m/s 751 mmHg 38%
12:00 +8°C° 0 mm 5 m/s 751 mmHg 37%
13:00 +9°C° 0 mm 5 m/s 751 mmHg 36%
14:00 +10°C° 0 mm 4 m/s 750 mmHg 39%
15:00 +10°C° 0 mm 4 m/s 750 mmHg 41%
16:00 +10°C° 0 mm 4 m/s 750 mmHg 43%
17:00 +8°C° 0 mm 4 m/s 750 mmHg 52%
18:00 +7°C° 0 mm 3 m/s 750 mmHg 61%
19:00 +6°C° 0 mm 2 m/s 750 mmHg 70%
20:00 +5°C° 0 mm 2 m/s 750 mmHg 73%
21:00 +5°C° 0 mm 2 m/s 750 mmHg 76%
22:00 +4°C° 0 mm 2 m/s 749 mmHg 79%
23:00 +4°C° 0 mm 2 m/s 749 mmHg 83%

25 Aprilie, Duminică

Timp Temperatura Precipitaţii Vânt Presiune Umiditate
00:00 +3°C° 0 mm 2 m/s 749 mmHg 87%
01:00 +2°C° 0 mm 2 m/s 749 mmHg 91%
02:00 +2°C° 0.1 mm 2 m/s 749 mmHg 93%
03:00 +1°C° 0.1 mm 2 m/s 749 mmHg 95%
04:00 +1°C° 0.1 mm 2 m/s 750 mmHg 96%
05:00 +2°C° 0.1 mm 2 m/s 750 mmHg 90%
06:00 +2°C° 0.1 mm 2 m/s 750 mmHg 84%
07:00 +3°C° 0.1 mm 2 m/s 750 mmHg 77%
08:00 +4°C° 0.1 mm 2 m/s 750 mmHg 69%
09:00 +5°C° 0.1 mm 2 m/s 750 mmHg 61%
10:00 +7°C° 0.1 mm 3 m/s 750 mmHg 52%
11:00 +6°C° 0.3 mm 4 m/s 750 mmHg 51%
12:00 +6°C° 0.3 mm 4 m/s 749 mmHg 50%
13:00 +7°C° 0.3 mm 5 m/s 749 mmHg 49%
14:00 +7°C° 0.1 mm 6 m/s 749 mmHg 48%
15:00 +7°C° 0.1 mm 6 m/s 749 mmHg 47%
16:00 +7°C° 0.1 mm 6 m/s 749 mmHg 46%
17:00 +6°C° 0 mm 5 m/s 749 mmHg 51%
18:00 +4°C° 0 mm 4 m/s 749 mmHg 55%
19:00 +3°C° 0 mm 4 m/s 749 mmHg 59%
20:00 +2°C° 0 mm 3 m/s 749 mmHg 63%
21:00 +1°C° 0 mm 3 m/s 749 mmHg 67%
22:00 +1°C° 0 mm 3 m/s 749 mmHg 71%
23:00 0°C° 0 mm 3 m/s 749 mmHg 71%

26 Aprilie, Luni

Timp Temperatura Precipitaţii Vânt Presiune Umiditate
00:00 0°C° 0 mm 3 m/s 749 mmHg 72%
01:00 -1°C° 0 mm 3 m/s 749 mmHg 72%
02:00 -1°C° 0 mm 2 m/s 749 mmHg 72%
03:00 -2°C° 0 mm 2 m/s 749 mmHg 71%
04:00 -2°C° 0 mm 2 m/s 749 mmHg 70%
05:00 +1°C° 0 mm 2 m/s 749 mmHg 64%
06:00 +1°C° 0 mm 3 m/s 749 mmHg 58%
07:00 +3°C° 0 mm 3 m/s 749 mmHg 51%
08:00 +5°C° 0 mm 3 m/s 749 mmHg 47%
09:00 +6°C° 0 mm 4 m/s 748 mmHg 44%
10:00 +7°C° 0 mm 4 m/s 748 mmHg 40%
11:00 +8°C° 0.1 mm 4 m/s 748 mmHg 42%
12:00 +8°C° 0.1 mm 5 m/s 747 mmHg 45%
13:00 +8°C° 0.1 mm 5 m/s 747 mmHg 47%
14:00 +8°C° 0.1 mm 4 m/s 747 mmHg 47%
15:00 +10°C° 0.1 mm 4 m/s 746 mmHg 46%
16:00 +10°C° 0.1 mm 4 m/s 746 mmHg 46%
17:00 +8°C° 0 mm 3 m/s 746 mmHg 52%
18:00 +7°C° 0 mm 2 m/s 746 mmHg 58%
19:00 +6°C° 0 mm 1 m/s 746 mmHg 63%
20:00 +6°C° 0 mm 1 m/s 746 mmHg 65%
21:00 +5°C° 0 mm 1 m/s 746 mmHg 66%
22:00 +3°C° 0 mm 0 m/s 746 mmHg 67%
23:00 +4°C° 0 mm 1 m/s 746 mmHg 69%

27 Aprilie, Marţi

Timp Temperatura Precipitaţii Vânt Presiune Umiditate
00:00 +4°C° 0 mm 1 m/s 746 mmHg 72%
01:00 +3°C° 0 mm 1 m/s 746 mmHg 74%
02:00 +3°C° 0 mm 1 m/s 745 mmHg 76%
03:00 +2°C° 0 mm 0 m/s 745 mmHg 78%
04:00 +1°C° 0 mm 0 m/s 745 mmHg 80%
05:00 +4°C° 0 mm 1 m/s 745 mmHg 75%
06:00 +6°C° 0 mm 1 m/s 745 mmHg 70%
07:00 +6°C° 0 mm 2 m/s 745 mmHg 64%
08:00 +8°C° 0 mm 2 m/s 745 mmHg 59%
09:00 +9°C° 0 mm 2 m/s 744 mmHg 54%
10:00 +12°C° 0 mm 2 m/s 744 mmHg 49%
11:00 +13°C° 0 mm 2 m/s 744 mmHg 46%
12:00 +13°C° 0 mm 2 m/s 743 mmHg 43%
13:00 +14°C° 0 mm 2 m/s 743 mmHg 40%
14:00 +14°C° 0 mm 2 m/s 742 mmHg 41%
15:00 +13°C° 0 mm 3 m/s 742 mmHg 41%
16:00 +13°C° 0 mm 3 m/s 741 mmHg 42%
17:00 +12°C° 0 mm 3 m/s 741 mmHg 49%
18:00 +10°C° 0 mm 3 m/s 741 mmHg 56%
19:00 +8°C° 0 mm 3 m/s 741 mmHg 64%
20:00 +8°C° 0 mm 3 m/s 741 mmHg 65%
21:00 +7°C° 0 mm 3 m/s 740 mmHg 67%
22:00 +6°C° 0 mm 4 m/s 740 mmHg 69%
23:00 +6°C° 0 mm 4 m/s 740 mmHg 69%
Arată mai mult

Formular de consimțământ

Meteoprog și furnizorii noștri de servicii pot stoca și accesa date personale, precum cookies, identificatori de dispozitiv sau alte tehnologii similare pe dispozitivul dumneavoastră și procesa astfel de date pentru a personaliza conținutul și reclamele, dar și pentru a oferi caracteristici de social media și pentru a analiza traficul.

  • Stocarea și/sau accesarea informațiilor pe dispozitivul dumneavoastră

    Cookies, identificatori de dispozitiv sau alte informații pot fi stocate sau accesate pe dispozitiv în scopurile indicate mai sus.

  • Reclame și conținut personalizat, evaluarea reclamelor și a conținutului, informații despre audiențe și dezvoltarea produselor

    Reclamele și conținutul pot fi personalizate pe baza unui profil. Pot fi adăugate date suplimentare pentru a personaliza mai bine reclamele și conținutul. Performanța reclamelor și conținutului poate fi măsurată. Pot fi obținute informații despre utilizatorii care au văzut reclamele și conținutul. Aceste date pot fi utilizate pentru a dezvolta sau îmbunătăți experiența utilizatorilor, sistemele și software-ul.

Dând clic pe ‘Sunt de acord’, permiteți utilizarea cookie-urilor menționate, a identificatorilor de dispozitiv, balizelor web sau altor tehnologii similare. Setările pot fi modificate din browser-ul dispozitivului dumneavoastră.

În anumite scopuri, interesele legitime pot prima asupra consimțământului. Puteți citi mai multe informații în acest sens în Politica privind Confidențialitatea Datelor și Cookie.